"Time","Temp","Dewpoint","Humidity","Pressure","Direction","Speed","Gust","Precip","PrecipRate"
"00:04:59","42","41.2","97","29.67","338","0.4","3.5","0.00","0.00"
"00:09:57","42","41.2","97","29.67","338","0.4","2.4","0.00","0.00"
"00:14:58","42","41.2","97","29.67","338","0","0","0.00","0.00"
"00:19:58","42","41.2","97","29.66","338","0","1.2","0.00","0.00"
"00:24:57","42","41.2","97","29.66","338","0.1","1.2","0.00","0.00"
"00:29:57","42","41.2","97","29.66","338","0","1.2","0.00","0.00"
"00:34:57","42.1","41.3","97","29.66","338","0.4","2.4","0.00","0.00"
"00:39:56","42","41.2","97","29.66","338","0.2","2.4","0.00","0.00"
"00:44:56","42","41.2","97","29.67","338","0.2","2.3","0.00","0.00"
"00:49:56","42.1","41.3","97","29.67","338","0.1","1.2","0.00","0.00"
"00:54:59","42.1","41.3","97","29.67","338","0.1","1.2","0.00","0.00"
"00:59:59","42.1","41.3","97","29.67","338","0.2","2.4","0.00","0.00"
"01:04:56","42.1","41.3","97","29.66","338","0.2","2.3","0.00","0.00"
"01:09:59","42.1","41.3","97","29.66","338","0.3","2.4","0.00","0.00"
"01:14:59","42.1","41.3","97","29.67","303","0.8","2.4","0.00","0.00"
"01:19:58","42","41.2","97","29.67","294","0","1.2","0.00","0.00"
"01:24:58","42","41.2","97","29.67","294","0","0","0.00","0.00"
"01:29:58","42","41.2","97","29.67","294","0.5","3.6","0.00","0.00"
"01:34:57","42","41.2","97","29.67","294","0.5","2.4","0.00","0.00"
"01:39:57","42","41.2","97","29.67","294","0.4","2.4","0.00","0.00"
"01:44:56","42","41.2","97","29.67","294","0.4","3.6","0.00","0.00"
"01:49:56","42","41.2","97","29.67","293","1.6","2.4","0.00","0.00"
"01:54:59","42","41.2","97","29.67","293","0.7","2.4","0.00","0.00"
"01:59:59","42","41.2","97","29.67","266","0.6","2.4","0.00","0.00"
"02:04:56","42","41.2","97","29.67","251","1.4","2.4","0.00","0.00"
"02:09:59","42","41.2","97","29.67","250","0.4","2.4","0.00","0.00"
"02:14:58","42","41.2","97","29.68","250","0.3","3.6","0.00","0.00"
"02:19:58","42.1","41.4","97.5","29.68","251","0","2.4","0.00","0.00"
"02:24:57","42.1","41.4","97.5","29.68","251","0.2","3.6","0.00","0.00"
"02:29:57","41.9","41.1","97","29.68","251","0","0","0.00","0.00"
"02:34:56","41.7","40.9","97","29.68","251","0","0","0.00","0.00"
"02:39:56","41.5","40.7","97","29.68","247","0","1.2","0.00","0.00"
"02:44:56","41.3","40.5","97","29.69","229","0.2","2.4","0.00","0.00"
"02:49:59","41.2","40.4","97","29.69","101","1","3.6","0.00","0.00"
"02:54:59","41.2","40.4","97","29.69","101","1.6","3.6","0.00","0.00"
"02:59:58","41.4","40.7","97.5","29.69","101","1.7","3.6","0.00","0.00"
"03:04:57","41.5","41","98","29.69","101","1.5","3.6","0.00","0.00"
"03:09:56","41.5","41","98","29.69","98","1.3","3.6","0.00","0.00"
"03:14:59","41.5","40.9","97.7","29.70","98","2","3.6","0.00","0.00"
"03:19:59","41.4","40.6","97","29.70","98","1.3","3.5","0.00","0.00"
"03:24:58","41.2","40.4","97","29.70","98","0.3","1.2","0.00","0.00"
"03:29:58","41","40.2","97","29.70","98","0","1.2","0.00","0.00"
"03:34:57","40.7","39.9","97","29.70","98","0.4","2.4","0.00","0.00"
"03:39:56","40.6","39.8","97","29.70","98","0.3","2.4","0.00","0.00"
"03:44:59","40.4","39.6","97","29.70","98","0.1","1.2","0.00","0.00"
"03:49:59","40.4","39.8","97.6","29.70","98","0.5","2.4","0.00","0.00"
"03:54:58","40.5","40","98","29.70","98","0","1.2","0.00","0.00"
"03:59:57","40.4","39.8","97.8","29.70","98","0.4","2.4","0.00","0.00"
"04:04:57","39.8","39","97","29.70","98","0.5","2.4","0.00","0.00"
"04:09:56","39.1","38.3","96.8","29.70","98","1","3.6","0.00","0.00"
"04:14:56","38.8","38","97","29.71","98","0.6","2.4","0.00","0.00"
"04:19:57","38.6","37.8","97","29.71","98","0.7","2.4","0.00","0.00"
"04:24:56","38.4","37.6","97","29.71","98","0.2","1.2","0.00","0.00"
"04:29:56","38.6","37.8","97","29.72","98","0.1","1.2","0.00","0.00"
"04:34:59","38.7","37.9","97.2","29.72","74","1.1","3.6","0.00","0.00"
"04:39:57","38.6","37.8","97","29.72","52","0.6","2.4","0.00","0.00"
"04:44:58","38.3","37.5","97","29.72","52","1","2.4","0.00","0.00"
"04:49:58","38.3","37.5","97","29.72","52","0.4","2.4","0.00","0.00"
"04:54:57","38.2","37.4","97","29.72","353","1","7.2","0.00","0.00"
"04:59:57","38.3","37.5","97","29.72","313","0.8","3.6","0.00","0.00"
"05:04:57","38.8","38.1","97.4","29.72","274","2.2","8.4","0.00","0.00"
"05:09:56","40.3","39.8","98","29.72","317","2.6","7.2","0.00","0.00"
"05:14:56","41.1","40.6","97.9","29.73","318","2.1","4.8","0.00","0.00"
"05:19:59","41.5","40.3","95.5","29.73","309","1.9","4.6","0.00","0.00"
"05:24:59","41.9","40.2","93.7","29.73","298","2.1","4.8","0.00","0.00"
"05:29:58","42.3","40.2","92.6","29.73","327","1.4","4.8","0.00","0.00"
"05:34:55","42.1","39.9","92","29.73","273","0.3","2.4","0.00","0.00"
"05:39:56","42","39.7","91.8","29.73","320","1.8","8.4","0.00","0.00"
"05:44:56","42.4","39.4","88.9","29.74","318","3.7","8.1","0.00","0.00"
"05:49:59","43.3","39.3","85.5","29.74","310","3.6","8.4","0.00","0.00"
"05:54:58","43.9","39","82.9","29.74","311","4","10.8","0.00","0.00"
"05:59:57","44.3","38.7","80.7","29.75","322","4.5","15","0.00","0.00"
"06:04:57","44.6","38.6","79.4","29.75","332","5.3","10.8","0.00","0.00"
"06:09:57","44.8","38.5","78.3","29.75","326","5.6","13.2","0.00","0.00"
"06:14:56","45","38.1","76.7","29.76","330","7.4","19.2","0.00","0.00"
"06:19:56","45.3","37.8","75.1","29.76","337","7.3","19.2","0.00","0.00"
"06:24:59","45.2","37.2","73.5","29.76","336","10.2","22.8","0.00","0.00"
"06:29:58","45.1","36.9","72.7","29.76","324","8.7","23","0.00","0.00"
"06:34:58","44.9","36.6","72.5","29.76","327","10.1","20.7","0.00","0.00"
"06:39:58","44.8","36.4","72.2","29.76","330","8.7","18.4","0.00","0.00"
"06:44:58","44.8","36.2","71.8","29.77","328","7.7","15","0.00","0.00"
"06:49:57","44.7","36.2","71.8","29.77","326","6.2","15","0.00","0.00"
"06:54:57","44.5","36.1","72.2","29.77","319","5.7","12","0.00","0.00"
"06:59:57","44.3","35.8","72","29.78","302","5.3","15","0.00","0.00"
"07:04:58","44.4","35.7","71.4","29.78","309","4.5","9.6","0.00","0.00"
"07:09:56","44.5","35.7","71","29.78","298","4.6","13.2","0.00","0.00"
"07:14:56","44.6","35.3","69.8","29.78","302","5.8","13.2","0.00","0.00"
"07:19:56","44.7","35","68.8","29.78","279","6.2","15","0.00","0.00"
"07:24:56","44.8","34.8","67.7","29.78","276","5.7","12","0.00","0.00"
"07:29:59","44.6","34.5","67.5","29.78","263","6.4","17.3","0.00","0.00"
"07:34:56","44.5","34.2","67","29.78","268","5","8.4","0.00","0.00"
"07:39:57","44.5","33.8","66","29.78","257","5.3","13.2","0.00","0.00"
"07:44:57","44.7","33.3","64.2","29.78","273","4.2","10.4","0.00","0.00"
"07:49:57","44.6","33.1","63.7","29.78","269","6.1","19.6","0.00","0.00"
"07:54:56","44.8","33","63","29.78","275","4.6","10.8","0.00","0.00"
"07:59:57","44.8","32.5","61.8","29.78","274","4.5","15.6","0.00","0.00"
"08:04:57","45","32.1","60.5","29.78","286","5.8","16.1","0.00","0.00"
"08:09:59","45.1","32.2","60.5","29.78","279","4","8.4","0.00","0.00"
"08:14:58","44.9","32.2","60.7","29.79","265","3.7","8.4","0.00","0.00"
"08:19:58","45.1","31.9","59.7","29.79","284","4.2","9.6","0.00","0.00"
"08:24:57","45.6","32.2","59.1","29.79","261","4.3","12","0.00","0.00"
"08:29:57","46","32.2","58.2","29.80","283","4.9","12","0.00","0.00"
"08:34:57","46.3","32.4","58.2","29.80","295","4.5","10.8","0.00","0.00"
"08:39:57","46.4","32.5","58.2","29.80","279","5.1","12","0.00","0.00"
"08:44:57","46.2","32.3","58.3","29.82","260","4.4","8.4","0.00","0.00"
"08:49:57","46.2","32.5","58.7","29.82","283","2.7","9.6","0.00","0.00"
"08:54:58","46.4","32.5","58.3","29.82","272","3.1","9.2","0.00","0.00"
"08:59:57","46.8","33.1","58.7","29.83","329","3.3","8.4","0.00","0.00"
"09:04:57","46.7","33.4","59.6","29.83","317","2.6","6","0.00","0.00"
"09:09:56","46.5","33.5","60.3","29.83","311","4.1","9.6","0.00","0.00"
"09:14:56","46.3","33","59.7","29.83","315","5","15","0.00","0.00"
"09:19:59","46.1","33.4","60.8","29.83","256","3.2","7.2","0.00","0.00"
"09:24:58","45.9","33.4","61.5","29.83","305","3.9","8.4","0.00","0.00"
"09:29:58","45.8","33.1","61.1","29.84","317","5.1","18.4","0.00","0.00"
"09:34:56","45.5","33.3","62.1","29.84","289","1.5","5.8","0.00","0.00"
"09:39:58","45.4","33.1","62","29.84","308","4","7.2","0.00","0.00"
"09:44:56","45.3","33","62","29.84","261","6.5","13.2","0.00","0.00"
"09:49:59","45.3","32.6","61.2","29.84","280","5.8","15","0.00","0.00"
"09:54:56","45.6","32.6","60.2","29.84","255","6.3","13.2","0.00","0.00"
"09:59:56","45.7","32","58.7","29.85","274","6.9","15","0.00","0.00"
"10:04:59","45.8","32.2","58.8","29.85","307","4.6","13.2","0.00","0.00"
"10:09:58","46.1","31.9","57.5","29.85","295","6.1","18.4","0.00","0.00"
"10:14:58","46.3","31.9","57","29.86","309","6.9","25.2","0.00","0.00"
"10:19:58","46.4","31.7","56.4","29.86","267","7.1","19.2","0.00","0.00"
"10:24:58","46.5","31.2","55.1","29.86","260","7.5","20.4","0.00","0.00"
"10:29:58","46.5","30.7","53.9","29.88","280","10.3","23","0.00","0.00"
"10:34:58","46.6","30.6","53.4","29.88","291","9.1","18.4","0.00","0.00"
"10:39:58","46.8","30.7","53.3","29.88","282","8.8","26.4","0.00","0.00"
"10:44:58","47.5","31.7","54","29.88","275","7.5","23","0.00","0.00"
"10:49:58","47.7","31.1","52.5","29.88","265","11.1","25.3","0.00","0.00"
"10:54:59","48.5","31.2","51.2","29.88","286","11.7","26.5","0.01","0.01"
"10:59:59","48.1","31.3","51.9","29.88","267","9.4","19.6","0.01","0.01"
"11:04:59","48.4","31.5","51.9","29.87","266","9","20.4","0.01","0.01"
"11:09:58","48.8","31.2","50.4","29.87","308","10.5","23","0.01","0.01"
"11:14:56","48.3","30.7","50.4","29.87","288","7.5","23","0.01","0.01"
"11:19:56","47.9","31.1","52.1","29.87","279","7.2","18.4","0.01","0.01"
"11:24:57","47.5","30.8","52.2","29.87","279","7.7","23","0.01","0.01"
"11:29:58","47.3","30.7","52.3","29.87","273","8","18.4","0.01","0.01"
"11:34:58","47.2","30.8","52.8","29.87","282","5.4","15","0.01","0.01"
"11:39:58","47.2","31","53.2","29.87","311","4.5","12","0.01","0.01"
"11:44:59","47.3","31.4","54","29.87","310","3.5","12","0.01","0.01"
"11:49:59","47.3","31.1","53.1","29.87","320","5.8","15","0.01","0.01"
"11:54:59","47.2","30.8","52.6","29.87","299","5.8","16.1","0.01","0.01"
"11:59:59","47.2","30.6","52.3","29.88","304","5.2","16.1","0.01","0.00"
"12:04:59","47.1","30.7","52.7","29.88","296","5.6","13.2","0.01","0.00"
"12:09:58","47.1","30.7","52.7","29.88","304","5.5","15","0.01","0.00"
"12:14:58","47.2","30.9","53","29.88","296","5.2","15","0.01","0.00"
"12:19:59","47.2","30.6","52.3","29.88","313","5.5","10.8","0.01","0.00"
"12:24:59","47.3","30.9","52.8","29.88","299","4.5","10.8","0.01","0.00"
"12:29:59","47.5","31.3","53.2","29.88","296","4.7","16.8","0.01","0.00"
"12:34:57","47.7","30.9","52.1","29.87","329","7","18.4","0.01","0.00"
"12:39:58","47.6","30.7","51.8","29.87","328","9.8","23","0.01","0.00"
"12:44:58","47.5","30.3","51.1","29.87","319","8.4","18.4","0.01","0.00"
"12:49:59","47.9","31.3","52.5","29.87","315","7.1","16.1","0.01","0.00"
"12:54:59","47.8","30.8","51.7","29.87","314","8.2","19.6","0.01","0.00"
"12:59:56","48","31.3","52.1","29.87","316","8.3","21.9","0.01","0.00"
"13:04:57","49.3","31.8","50.8","29.87","314","9.2","20.4","0.01","0.00"
"13:09:59","49.6","31.6","49.8","29.87","307","9.6","21.6","0.01","0.00"
"13:14:57","49","30.8","49.3","29.87","339","11","24.2","0.01","0.00"
"13:19:57","49.2","31.5","50.5","29.87","295","9.1","20.7","0.01","0.00"
"13:24:57","49.6","31.4","49.4","29.87","330","11.2","24.2","0.01","0.00"
"13:29:57","49.7","31.5","49.4","29.88","307","10.5","23","0.01","0.00"
"13:34:57","49.3","31.2","49.6","29.88","305","9.9","23","0.01","0.00"
"13:39:58","48.9","31.5","50.7","29.88","303","7.2","16.8","0.01","0.00"
"13:44:59","47.7","30.6","51.5","29.89","306","7.8","17.3","0.01","0.00"
"13:49:56","47.1","30.4","52.2","29.89","298","9.1","23","0.01","0.00"
"13:54:56","47.1","30.5","52.3","29.89","309","8.3","17.3","0.01","0.00"
"13:59:57","47.2","30.8","52.8","29.90","294","9.5","28.8","0.01","0.00"
"14:04:57","48.4","31.5","51.9","29.90","323","10","28.8","0.01","0.00"
"14:09:59","48.8","31.4","50.8","29.90","342","11.4","24.2","0.01","0.00"
"14:14:56","49","31.8","51.4","29.90","334","7.9","23","0.01","0.00"
"14:19:56","47.9","30.7","51.2","29.90","312","8.3","18.4","0.01","0.00"
"14:24:57","47.9","31","51.9","29.90","290","9.5","20.7","0.01","0.00"
"14:29:57","47.4","30.9","52.6","29.91","289","8","21.9","0.01","0.00"
"14:34:57","47.4","30.7","52.1","29.91","305","9.7","21.9","0.01","0.00"
"14:39:58","46.7","30.4","52.7","29.91","314","8.6","18","0.01","0.00"
"14:44:59","46.8","30.4","52.7","29.91","331","10.4","30","0.01","0.00"
"14:49:59","46.6","29.9","52","29.91","315","11.3","21.9","0.01","0.00"
"14:54:59","46.5","30.3","52.9","29.91","314","8","17.3","0.01","0.00"
"14:59:56","46.8","30.5","52.8","29.92","342","9.9","21.9","0.01","0.00"
"15:04:59","46.4","30.1","52.7","29.92","314","9.1","21.9","0.01","0.00"
"15:09:58","45.9","29.8","53.1","29.92","322","9.3","20.7","0.01","0.00"
"15:14:58","46.5","30.4","53.1","29.92","324","8.1","25.3","0.01","0.00"
"15:19:58","47.2","30.3","51.8","29.92","312","7.1","25.2","0.01","0.00"
"15:24:58","46.6","29.7","51.6","29.92","327","9.7","25.3","0.01","0.00"
"15:29:58","46.1","29.5","52.2","29.93","326","7.8","19.6","0.01","0.00"
"15:34:59","45.6","29.5","53.2","29.93","314","6.5","18.4","0.01","0.00"
"15:39:56","45.4","29.6","53.8","29.93","294","4.8","12","0.01","0.00"
"15:44:56","45.2","29.7","54.3","29.95","316","5.6","19.2","0.01","0.00"
"15:49:56","45.6","30.2","54.8","29.95","328","7.2","19.6","0.01","0.00"
"15:54:57","45.7","30.1","54.4","29.95","338","7.1","20.7","0.01","0.00"
"15:59:58","45.4","30.3","55.2","29.96","329","6.2","16.1","0.01","0.00"
"16:04:58","45.3","29.9","54.5","29.96","328","9.4","17.3","0.01","0.00"
"16:09:57","45","30","55.5","29.96","314","6.3","16.1","0.01","0.00"
"16:14:58","45","29.7","54.9","29.97","330","7.9","18.4","0.01","0.00"
"16:19:59","45","29.2","53.9","29.97","325","8.6","19.6","0.01","0.00"
"16:24:58","45.1","29.5","54.1","29.97","316","6.4","23","0.01","0.00"
"16:29:59","45.1","29.2","53.6","29.98","309","8.8","18.4","0.01","0.00"
"16:34:59","44.8","29.3","54.2","29.98","300","6.4","18.4","0.01","0.00"
"16:39:56","44.4","29.2","55","29.98","326","5.2","16.8","0.01","0.00"
"16:44:57","44.1","29.2","55.6","29.99","296","6","17.3","0.01","0.00"
"16:49:57","43.8","28.9","55.5","29.99","289","5.8","18","0.01","0.00"
"16:54:59","43.6","28.5","55.1","29.99","287","7.6","22.8","0.01","0.00"
"16:59:59","43.4","28.3","55","29.99","318","8.9","26.5","0.01","0.00"
"17:04:56","43.3","28.2","55","29.99","302","9.7","24.2","0.01","0.00"
"17:09:59","43.2","28.2","55.2","29.99","322","9.1","19.6","0.01","0.00"
"17:14:56","42.9","28.3","55.8","30.00","316","9.5","19.6","0.01","0.00"
"17:19:57","42.8","28.2","56","30.00","330","8.7","21.9","0.01","0.00"
"17:24:58","42.7","28.1","56","30.00","319","9.9","21.9","0.01","0.00"
"17:29:59","42.6","28","56","30.01","322","8.7","17.3","0.01","0.00"
"17:34:59","42.5","28.1","56.6","30.01","319","6.3","13.2","0.01","0.00"
"17:39:56","42.2","28.1","57.2","30.01","332","8.6","17.3","0.01","0.00"
"17:44:57","42.1","28.4","58","30.02","320","6.1","17.3","0.01","0.00"
"17:49:58","41.9","28.2","58","30.02","320","6.4","16.8","0.01","0.00"
"17:54:58","41.9","28.3","58.4","30.02","307","6.8","17.3","0.01","0.00"
"17:59:59","41.8","28.3","58.6","30.02","295","7.2","18.4","0.01","0.00"
"18:04:56","41.7","28.4","59","30.02","297","6.7","18.4","0.01","0.00"
"18:09:58","41.6","28.3","59.1","30.02","289","4.2","12.7","0.01","0.00"
"18:14:56","41.4","28.5","59.8","30.03","303","4.5","12","0.01","0.00"
"18:19:56","41.3","28.4","60","30.03","310","4.9","11.5","0.01","0.00"
"18:24:57","41.2","28.4","60","30.03","271","3.6","7.2","0.01","0.00"
"18:29:58","41.1","28.4","60.3","30.04","294","4.8","12","0.01","0.00"
"18:34:59","41.1","28.3","60.2","30.04","280","3.3","7.2","0.01","0.00"
"18:39:56","41","28.2","60.2","30.04","319","7","17.3","0.01","0.00"
"18:44:56","41.3","28.3","59.6","30.05","291","6.6","19.6","0.01","0.00"
"18:49:56","41.5","28.3","59.3","30.05","298","6.7","16.1","0.01","0.00"
"18:54:57","41.5","28.4","59.7","30.05","310","5.1","12","0.01","0.00"
"18:59:56","41.2","28.4","60","30.05","329","7.7","20.7","0.01","0.00"
"19:04:57","41.1","28.4","60.3","30.04","317","7.3","16.1","0.01","0.00"
"19:09:59","40.9","28.5","61","30.04","313","5.4","12.7","0.01","0.00"
"19:14:57","40.7","28.3","61","30.04","303","7.3","18.4","0.01","0.00"
"19:19:57","40.9","28.5","61","30.04","323","8.8","23","0.01","0.00"
"19:24:57","40.9","28.5","61","30.04","280","6.7","19.2","0.01","0.00"
"19:29:57","40.8","28.5","61.1","30.05","277","6.4","16.1","0.01","0.00"
"19:34:58","40.7","28.3","61","30.05","262","4.6","16.1","0.01","0.00"
"19:39:59","40.7","28.3","61","30.05","291","6.8","16.1","0.01","0.00"
"19:44:59","40.8","28.4","61","30.06","287","6.4","16.1","0.01","0.00"
"19:49:59","40.7","28.3","61","30.06","290","7.2","16.1","0.01","0.00"
"19:54:56","40.6","28.2","61","30.06","278","5","15","0.01","0.00"
"19:59:56","40.5","28.1","61","30.07","265","3.7","15","0.01","0.00"
"20:04:57","40.3","28","61.1","30.07","295","5.5","18.4","0.01","0.00"
"20:09:59","40.3","27.9","61","30.07","257","3.4","15","0.01","0.00"
"20:14:56","40.3","27.9","61","30.08","317","4.7","15","0.01","0.00"
"20:19:57","40.2","27.8","61","30.08","234","4.1","21.9","0.01","0.00"
"20:24:57","40.1","27.7","61","30.08","283","4.4","21.9","0.01","0.00"
"20:29:57","40","27.7","61","30.08","311","5","10.8","0.01","0.00"
"20:34:58","40","27.8","61.6","30.08","272","3.6","7.2","0.01","0.00"
"20:39:58","39.9","27.7","61.5","30.08","284","4.8","12","0.01","0.00"
"20:44:59","39.9","27.6","61","30.08","291","4.7","11.5","0.01","0.00"
"20:49:56","39.9","27.4","60.6","30.08","292","7.3","17.3","0.01","0.00"
"20:54:56","40","27.2","59.8","30.08","282","7","18","0.01","0.00"
"20:59:56","40.1","26.9","59.1","30.08","290","6.9","21.9","0.01","0.00"
"21:04:56","40.2","27","59","30.08","280","6.8","20.7","0.01","0.00"
"21:09:59","40.1","26.9","59","30.08","275","7.9","16.1","0.01","0.00"
"21:14:59","40","26.8","59","30.09","301","4.9","16.1","0.01","0.00"
"21:19:56","39.8","26.8","59.6","30.09","300","3.7","15","0.01","0.00"
"21:24:57","39.5","26.8","60","30.09","304","3.6","8.4","0.01","0.00"
"21:29:57","39.3","26.9","60.7","30.10","287","4.4","14.4","0.01","0.00"
"21:34:55","39.5","26.8","60","30.10","279","4.2","15","0.01","0.00"
"21:39:56","39.7","26.9","60.2","30.10","317","5.3","15.6","0.01","0.00"
"21:44:57","39.7","26.9","60","30.10","314","6.3","16.1","0.01","0.00"
"21:49:56","39.7","27.2","60.7","30.09","314","4.1","15","0.01","0.00"
"21:54:56","39.7","27.1","60.5","30.09","290","4.4","10.8","0.01","0.00"
"21:59:58","39.8","27.4","61","30.10","284","3.6","8.4","0.01","0.00"
"22:04:58","39.8","27.4","61","30.10","287","5.4","12","0.01","0.00"
"22:09:57","39.8","27.4","61","30.10","303","6.2","15","0.01","0.00"
"22:14:58","40","27.6","61","30.10","289","4.9","13.2","0.01","0.00"
"22:19:58","40","27.6","61.2","30.10","306","5.3","13.2","0.01","0.00"
"22:24:58","39.9","27.7","61.3","30.10","271","5.5","15","0.01","0.00"
"22:29:59","39.9","27.9","62","30.10","308","4.8","12","0.01","0.00"
"22:34:59","39.8","27.8","62","30.10","297","5.8","14.4","0.01","0.00"
"22:39:59","39.9","27.9","62","30.10","286","4.9","15","0.01","0.00"
"22:44:56","39.9","27.9","62","30.10","306","5.3","15","0.01","0.00"
"22:49:36","39.9","27.7","61.7","30.10","301","5.4","12","0.01","0.00"
"22:54:57","39.9","27.5","61","30.10","312","6.3","20.7","0.01","0.00"
"22:59:58","39.9","27.7","61.5","30.10","276","4.3","15","0.01","0.00"
"23:04:58","39.8","27.5","61.2","30.10","267","4.2","12","0.01","0.00"
"23:09:56","39.8","27.5","61.2","30.10","280","4.3","12","0.01","0.00"
"23:14:57","39.8","27.4","61","30.10","308","5","12","0.01","0.00"
"23:19:57","39.9","27.3","60.5","30.10","269","5.5","12","0.01","0.00"
"23:24:58","39.8","27.4","61","30.10","276","3.5","11.5","0.01","0.00"
"23:29:58","39.8","27.3","60.8","30.11","241","3.2","10.8","0.01","0.00"
"23:34:59","39.7","27.1","60.5","30.11","257","3.3","10.4","0.01","0.00"
"23:39:56","39.7","27.4","61.5","30.11","256","3.3","7.2","0.01","0.00"
"23:44:56","39.6","27.2","61.1","30.11","272","4","10.8","0.01","0.00"
"23:49:57","39.6","26.9","60.3","30.10","257","3.4","6.9","0.01","0.00"
